Weather History for Childress, TX

Change the Weather History Date:

Saturday, December 21, 2013

  Actual Average Record
Temperature  
Mean Temperature 31 °F 41 °F  
Max Temperature 33 °F 54 °F 79 °F (1981)
Min Temperature 29 °F 28 °F 3 °F (1983)
Degree Days  
Heating Degree Days 34 24  
Month to date heating degree days 519 471  
Since 1 July heating degree days 1117 1031  
Cooling Degree Days 0 0  
Month to date cooling degree days 0 0  
Year to date cooling degree days 2407 2207  
Moisture  
Dew Point 28 °F    
Average Humidity 85    
Maximum Humidity 92    
Minimum Humidity 78    
Precipitation  
Precipitation 0.26 in 0.02 in 1.10 in (1907)
Month to date precipitation 1.01 0.66  
Year to date precipitation 16.15 23.67  
Sea Level Pressure  
Sea Level Pressure 29.69 in    
Wind  
Wind Speed 9 mph (NNE)    
Max Wind Speed 18 mph    
Max Gust Speed 22 mph    
Visibility 6 miles    
Events Rain , Snow    
T = Trace of Precipitation, MM = Missing Value Source: NWS Daily Summary

Daily Weather History Graph

Daily Weather History Graph

Search for Another Location

Airport:

Trip Planner

Search our weather history database for the weather conditions in past years. The results will help you decide how hot, cold, wet, or windy it might be!

Date:

Astronomy

Dec. 21, 2013 Rise Set
Actual Time 7:43 AM CST 5:35 PM CST
Civil Twilight 7:15 AM CST 6:02 PM CST
Nautical Twilight 6:44 AM CST 6:34 PM CST
Astronomical Twilight 6:13 AM CST 7:05 PM CST
Moon 9:43 PM CST (12/21) 10:19 AM CST (12/21)
Length of Visible Light 10h 47m
Length of Day
9h 51m
Waning Gibbous, 84% of the Moon is Illuminated
Dec 21
Waning Gibbous
Dec 25
Last Quarter
Jan 1
New
Jan 7
First Quarter
Jan 15
Full

Hourly Weather History & Observations

Time (CST) Temp. Windchill Dew Point Humidity Pressure Visibility Wind Dir Wind Speed Gust Speed Precip Events Conditions
12:16 AM 30.9 °F 24.3 °F 28.0 °F 89% 29.77 in 8.0 mi North 6.9 mph - 0.02 in Rain Light Freezing Rain
12:42 AM 30.9 °F 25.2 °F 28.0 °F 89% 29.78 in 5.0 mi North 5.8 mph - 0.05 in Rain Light Freezing Rain
12:53 AM 32.0 °F 27.5 °F 28.9 °F 88% 29.79 in 5.0 mi NNE 4.6 mph - 0.06 in   Overcast
1:53 AM 30.9 °F 24.3 °F 28.9 °F 92% 29.77 in 5.0 mi NE 6.9 mph - 0.08 in   Overcast
2:24 AM 30.9 °F 22.8 °F 28.9 °F 92% 29.71 in 5.0 mi ENE 9.2 mph - 0.02 in   Overcast
2:41 AM 32.0 °F 24.8 °F 28.9 °F 88% 29.71 in 6.0 mi NE 8.1 mph - 0.02 in   Overcast
2:53 AM 32.0 °F 24.8 °F 28.9 °F 88% 29.75 in 6.0 mi ENE 8.1 mph - 0.03 in   Overcast
3:53 AM 32.0 °F 24.2 °F 28.9 °F 88% 29.73 in 5.0 mi ENE 9.2 mph - 0.00 in   Overcast
4:19 AM 32.0 °F 24.2 °F 28.9 °F 88% 29.71 in 2.0 mi NE 9.2 mph - 0.05 in   Overcast
4:30 AM 32.0 °F 24.2 °F 28.9 °F 88% 29.68 in 5.0 mi NE 9.2 mph - 0.06 in   Overcast
4:53 AM 30.9 °F 22.2 °F 28.0 °F 89% 29.71 in 7.0 mi NE 10.4 mph - 0.07 in   Overcast
5:53 AM 30.9 °F 24.3 °F 28.0 °F 89% 29.69 in 9.0 mi NE 6.9 mph - 0.00 in   Overcast
6:37 AM 30.9 °F 24.3 °F 28.0 °F 89% 29.65 in 3.0 mi NE 6.9 mph - 0.00 in   Overcast
6:53 AM 30.0 °F 23.2 °F 27.0 °F 88% 29.69 in 4.0 mi ENE 6.9 mph - 0.00 in   Overcast
7:00 AM 30.0 °F 24.1 °F 28.0 °F 92% 29.65 in 4.0 mi ENE 5.8 mph - N/A   Overcast
7:17 AM 30.0 °F 25.2 °F 28.0 °F 92% 29.66 in 3.0 mi NNE 4.6 mph - 0.01 in   Overcast
7:24 AM 30.0 °F 24.1 °F 28.0 °F 92% 29.66 in 2.5 mi NE 5.8 mph - 0.01 in   Overcast
7:43 AM 30.0 °F 21.1 °F 28.0 °F 92% 29.66 in 4.0 mi North 10.4 mph - 0.02 in   Overcast
7:53 AM 30.9 °F 23.5 °F 28.0 °F 89% 29.68 in 3.0 mi NNE 8.1 mph - 0.02 in   Overcast
8:16 AM 30.9 °F 22.8 °F 28.0 °F 89% 29.64 in 1.8 mi NNE 9.2 mph - 0.00 in   Overcast
8:25 AM 30.9 °F 24.3 °F 28.0 °F 89% 29.65 in 2.5 mi NNE 6.9 mph - 0.01 in   Overcast
8:32 AM 30.9 °F 24.3 °F 28.0 °F 89% 29.66 in 4.0 mi NE 6.9 mph - 0.01 in   Overcast
8:53 AM 30.9 °F 25.2 °F 28.0 °F 89% 29.68 in 1.8 mi NNE 5.8 mph - 0.01 in   Overcast
9:14 AM 30.9 °F 24.3 °F 28.0 °F 89% 29.65 in 2.0 mi NE 6.9 mph - 0.00 in   Overcast
9:53 AM 30.9 °F 26.2 °F 28.0 °F 89% 29.69 in 2.0 mi ENE 4.6 mph - 0.00 in   Overcast
10:17 AM 30.9 °F 23.5 °F 28.0 °F 89% 29.64 in 3.0 mi NE 8.1 mph - N/A   Overcast
10:53 AM 30.9 °F 24.3 °F 28.0 °F 89% 29.68 in 7.0 mi NE 6.9 mph - N/A   Overcast
11:39 AM 30.9 °F 26.2 °F 28.0 °F 89% 29.63 in 2.5 mi NE 4.6 mph - N/A   Overcast
11:46 AM 30.9 °F - 28.0 °F 89% 29.64 in 4.0 mi Calm Calm - N/A   Overcast
11:53 AM 30.9 °F 26.2 °F 28.0 °F 89% 29.65 in 4.0 mi NE 4.6 mph - N/A   Overcast
12:20 PM 30.9 °F 27.5 °F 28.0 °F 89% 29.63 in 2.0 mi North 3.5 mph - N/A   Overcast
12:29 PM 30.9 °F - 28.9 °F 92% 29.64 in 1.5 mi Calm Calm - 0.00 in   Overcast
12:45 PM 30.9 °F 27.5 °F 28.0 °F 89% 29.62 in 2.0 mi NE 3.5 mph - 0.00 in Rain Light Freezing Rain
12:53 PM 30.9 °F 25.2 °F 28.0 °F 89% 29.63 in 3.0 mi NE 5.8 mph - 0.00 in   Overcast
1:01 PM 30.9 °F 26.2 °F 28.9 °F 92% 29.60 in 1.8 mi NE 4.6 mph - 0.00 in Snow Light Snow
1:17 PM 32.0 °F 28.7 °F 28.9 °F 88% 29.59 in 3.0 mi NE 3.5 mph - 0.00 in   Overcast
1:25 PM 32.0 °F 27.5 °F 28.9 °F 88% 29.59 in 9.0 mi NE 4.6 mph - 0.00 in   Overcast
1:45 PM 32.0 °F - 28.0 °F 85% 29.59 in 10.0 mi Calm Calm - 0.00 in   Overcast
1:53 PM 32.0 °F 28.7 °F 28.9 °F 88% 29.61 in 10.0 mi NE 3.5 mph - 0.00 in   Overcast
2:53 PM 32.0 °F 28.7 °F 28.9 °F 88% 29.60 in 10.0 mi NNE 3.5 mph - N/A   Overcast
3:53 PM 32.0 °F 24.2 °F 30.0 °F 92% 29.62 in 8.0 mi North 9.2 mph - N/A   Overcast
4:53 PM 32.0 °F 24.2 °F 28.9 °F 88% 29.64 in 9.0 mi North 9.2 mph - N/A   Overcast
5:53 PM 32.0 °F 23.6 °F 28.9 °F 88% 29.67 in 10.0 mi North 10.4 mph - N/A   Overcast
6:21 PM 32.0 °F 23.6 °F 28.9 °F 88% 29.66 in 10.0 mi North 10.4 mph - N/A   Overcast
6:53 PM 32.0 °F 23.6 °F 28.9 °F 88% 29.70 in 10.0 mi North 10.4 mph - N/A   Overcast
7:27 PM 32.0 °F 21.2 °F 28.9 °F 88% 29.69 in 10.0 mi North 16.1 mph - N/A   Overcast
7:53 PM 32.0 °F 21.2 °F 27.0 °F 82% 29.74 in 10.0 mi North 16.1 mph - N/A   Overcast
8:10 PM 32.0 °F 21.2 °F 28.0 °F 85% 29.73 in 10.0 mi North 16.1 mph - N/A   Overcast
8:53 PM 30.9 °F 21.7 °F 26.1 °F 82% 29.80 in 10.0 mi North 11.5 mph - N/A   Overcast
9:24 PM 30.9 °F 19.8 °F 25.0 °F 79% 29.78 in 10.0 mi North 16.1 mph - N/A   Overcast
9:53 PM 30.0 °F 19.5 °F 25.0 °F 82% 29.83 in 10.0 mi North 13.8 mph - N/A   Overcast
10:53 PM 30.0 °F 19.5 °F 25.0 °F 82% 29.88 in 10.0 mi NNW 13.8 mph - N/A   Overcast
11:53 PM 28.9 °F 18.2 °F 24.1 °F 82% 29.90 in 10.0 mi NNW 13.8 mph - N/A   Partly Cloudy